TimeEDT,TemperatureF,Dew PointF,Humidity,Sea Level PressureIn,VisibilityMPH,Wind Direction,Wind SpeedMPH,Gust SpeedMPH,PrecipitationIn,Events,Conditions,WindDirDegrees,DateUTC
12:54 AM,61.0,59.0,93,30.17,10.0,Calm,Calm,-,N/A,,Clear,0,2012-09-27 04:54:00
1:54 AM,62.1,60.1,93,30.17,10.0,SSW,3.5,-,N/A,,Clear,210,2012-09-27 05:54:00
2:54 AM,61.0,60.1,97,30.16,10.0,Calm,Calm,-,N/A,,Clear,0,2012-09-27 06:54:00
3:54 AM,60.1,59.0,96,30.14,9.0,Calm,Calm,-,N/A,,Clear,0,2012-09-27 07:54:00
4:19 AM,57.2,57.2,100,30.17,1.8,Calm,Calm,-,N/A,,Clear,0,2012-09-27 08:19:00
4:24 AM,57.2,57.2,100,30.17,3.0,Calm,Calm,-,N/A,,Clear,0,2012-09-27 08:24:00
4:54 AM,59.0,57.9,96,30.14,7.0,SSW,3.5,-,N/A,,Clear,200,2012-09-27 08:54:00
5:19 AM,57.2,57.2,100,30.16,2.5,SW,3.5,-,N/A,,Clear,220,2012-09-27 09:19:00
5:41 AM,57.2,57.2,100,30.17,3.0,Calm,Calm,-,N/A,,Clear,0,2012-09-27 09:41:00
5:54 AM,55.9,55.9,100,30.15,4.0,Calm,Calm,-,N/A,,Clear,0,2012-09-27 09:54:00
6:01 AM,55.4,55.4,100,30.17,1.8,Calm,Calm,-,N/A,,Clear,0,2012-09-27 10:01:00
6:06 AM,55.4,55.4,100,30.17,0.8,Calm,Calm,-,N/A,,Clear,0,2012-09-27 10:06:00
6:13 AM,55.4,55.4,100,30.17,1.5,South,3.5,-,N/A,,Clear,180,2012-09-27 10:13:00
6:20 AM,57.2,55.4,94,30.17,10.0,SSW,3.5,-,N/A,,Clear,200,2012-09-27 10:20:00
6:54 AM,55.0,55.0,100,30.17,10.0,Calm,Calm,-,N/A,,Clear,0,2012-09-27 10:54:00
7:26 AM,55.4,55.4,100,30.19,10.0,Calm,Calm,-,N/A,,Scattered Clouds,0,2012-09-27 11:26:00
7:54 AM,57.0,55.9,96,30.18,10.0,South,4.6,-,N/A,,Partly Cloudy,170,2012-09-27 11:54:00
8:54 AM,64.9,62.1,90,30.19,10.0,Calm,Calm,-,N/A,,Clear,0,2012-09-27 12:54:00
9:54 AM,73.0,62.1,68,30.19,10.0,Calm,Calm,-,N/A,,Clear,0,2012-09-27 13:54:00
10:54 AM,79.0,61.0,54,30.18,10.0,Calm,Calm,-,N/A,,Clear,0,2012-09-27 14:54:00
11:54 AM,80.1,59.0,48,30.17,10.0,North,4.6,-,N/A,,Clear,360,2012-09-27 15:54:00
12:54 PM,82.0,59.0,45,30.15,10.0,Calm,Calm,-,N/A,,Clear,0,2012-09-27 16:54:00
1:54 PM,82.9,57.9,42,30.13,10.0,Calm,Calm,-,N/A,,Clear,0,2012-09-27 17:54:00
2:54 PM,82.0,57.9,44,30.11,10.0,Calm,Calm,-,N/A,,Clear,0,2012-09-27 18:54:00
3:54 PM,84.0,57.0,40,30.09,10.0,Calm,Calm,-,N/A,,Scattered Clouds,0,2012-09-27 19:54:00
4:54 PM,82.0,57.9,44,30.08,10.0,SSE,4.6,-,N/A,,Clear,160,2012-09-27 20:54:00
5:54 PM,80.1,57.9,47,30.08,10.0,South,5.8,-,N/A,,Clear,170,2012-09-27 21:54:00
6:54 PM,73.9,60.1,62,30.09,10.0,Calm,Calm,-,N/A,,Partly Cloudy,0,2012-09-27 22:54:00
7:54 PM,68.0,60.1,76,30.09,10.0,Calm,Calm,-,N/A,,Clear,0,2012-09-27 23:54:00
8:54 PM,66.0,60.1,81,30.10,10.0,Calm,Calm,-,N/A,,Clear,0,2012-09-28 00:54:00
9:54 PM,64.0,60.1,87,30.10,10.0,Calm,Calm,-,N/A,,Clear,0,2012-09-28 01:54:00
10:54 PM,64.9,60.1,84,30.09,10.0,Calm,Calm,-,N/A,,Clear,0,2012-09-28 02:54:00
11:54 PM,64.0,60.1,87,30.09,10.0,SSW,3.5,-,N/A,,Clear,200,2012-09-28 03:54:00